Weather History for Hereford, TX

Change the Weather History Date:

Saturday, March 16, 2013

  Actual Average (KAMA) Record (KAMA)
Temperature  
Mean Temperature 50 °F 48 °F  
Max Temperature 62 °F 63 °F 87 °F (2012)
Min Temperature 38 °F 33 °F 14 °F (1892)
Degree Days  
Heating Degree Days 15 17  
Month to date heating degree days 306  
Since 1 July heating degree days 3583  
Cooling Degree Days 0 0  
Month to date cooling degree days 0  
Year to date cooling degree days 0  
Moisture  
Dew Point 30 °F    
Average Humidity 47    
Maximum Humidity 60    
Minimum Humidity 33    
Precipitation  
Precipitation 0.00 in 0.05 in 0.50 in (1988)
Month to date precipitation 0.64  
Year to date precipitation 1.92  
Snow  
Snow 0.00 in 0.10 in 3.60 in (1998)
Month to date snowfall 1.5  
Since 1 July snowfall 15.5  
Snow Depth -    
Sea Level Pressure  
Sea Level Pressure 29.85 in    
Wind  
Wind Speed 11 mph (North)    
Max Wind Speed 26 mph    
Max Gust Speed 33 mph    
Visibility 10 miles    
Events      
T = Trace of Precipitation, MM = Missing Value Source: NWS Daily Summary

Daily Weather History Graph

Daily Weather History Graph

Search for Another Location

Airport:

Trip Planner

Search our weather history database for the weather conditions in past years. The results will help you decide how hot, cold, wet, or windy it might be!

Date:

Astronomy

Mar. 16, 2013 Rise Set
Actual Time 7:58 AM CDT 7:58 PM CDT
Civil Twilight 7:32 AM CDT 8:23 PM CDT
Nautical Twilight 7:03 AM CDT 8:52 PM CDT
Astronomical Twilight 6:34 AM CDT 9:22 PM CDT
Moon 10:41 AM CDT (3/16) 12:01 AM CDT (3/16)
Length of Visible Light 12h 50m
Length of Day
11h 59m
Waxing Crescent, 23% of the Moon is Illuminated
Mar 16
Waxing Crescent
Mar 19
First Quarter
Mar 27
Full
Apr 2
Last Quarter
Apr 10
New

Hourly Weather History & Observations

Time (CDT) Temp. Windchill Dew Point Humidity Pressure Visibility Wind Dir Wind Speed Gust Speed Precip Events Conditions
12:15 AM 44.8 °F 41.0 °F 23.0 °F 42% 29.86 in 10.0 mi WNW 6.9 mph - N/A   Clear
12:35 AM 44.1 °F 40.1 °F 23.9 °F 45% 29.85 in 10.0 mi WNW 6.9 mph - N/A   Clear
12:55 AM 41.4 °F 35.2 °F 26.2 °F 55% 29.85 in 10.0 mi WNW 10.4 mph - N/A   Clear
1:15 AM 41.7 °F 38.0 °F 25.2 °F 52% 29.84 in 10.0 mi WSW 5.8 mph - N/A   Clear
1:35 AM 42.1 °F 37.7 °F 25.0 °F 51% 29.84 in 10.0 mi WSW 6.9 mph - N/A   Clear
1:55 AM 42.6 °F 40.9 °F 24.4 °F 49% 29.84 in 10.0 mi West 3.5 mph - N/A   Clear
2:15 AM 42.6 °F 37.2 °F 23.7 °F 47% 29.83 in 10.0 mi West 9.2 mph - N/A   Clear
2:35 AM 41.0 °F 35.8 °F 23.9 °F 51% 29.82 in 10.0 mi West 8.1 mph - N/A   Clear
2:55 AM 41.0 °F 34.7 °F 24.1 °F 51% 29.82 in 10.0 mi West 10.4 mph - N/A   Clear
3:15 AM 41.2 °F 35.0 °F 24.3 °F 51% 29.81 in 10.0 mi West 10.4 mph - N/A   Clear
3:35 AM 42.3 °F 36.8 °F 22.8 °F 46% 29.81 in 10.0 mi West 9.2 mph - N/A   Clear
3:55 AM 41.4 °F 35.7 °F 23.5 °F 49% 29.81 in 10.0 mi West 9.2 mph - N/A   Clear
4:15 AM 41.0 °F 35.2 °F 23.0 °F 49% 29.80 in 10.0 mi West 9.2 mph - N/A   Clear
4:35 AM 39.4 °F 34.5 °F 23.7 °F 54% 29.80 in 10.0 mi WNW 6.9 mph - N/A   Clear
4:55 AM 38.1 °F 34.6 °F 23.9 °F 57% 29.80 in 10.0 mi WNW 4.6 mph - N/A   Clear
5:15 AM 40.8 °F - 24.4 °F 52% 29.80 in 10.0 mi Calm Calm - N/A   Clear
5:35 AM 39.9 °F - 23.9 °F 53% 29.80 in 10.0 mi Calm Calm - N/A   Clear
5:55 AM 40.5 °F 36.5 °F 24.8 °F 54% 29.80 in 10.0 mi SW 5.8 mph - N/A   Clear
6:15 AM 41.9 °F 38.2 °F 23.9 °F 49% 29.80 in 10.0 mi WSW 5.8 mph - N/A   Clear
6:35 AM 38.1 °F 32.3 °F 23.7 °F 56% 29.82 in 10.0 mi NW 8.1 mph - N/A   Clear
6:55 AM 39.4 °F 32.7 °F 23.0 °F 52% 29.82 in 10.0 mi NW 10.4 mph - N/A   Clear
7:15 AM 39.2 °F 34.2 °F 23.9 °F 54% 29.81 in 10.0 mi WNW 6.9 mph - N/A   Clear
7:35 AM 40.8 °F 36.2 °F 23.5 °F 50% 29.82 in 10.0 mi WNW 6.9 mph - N/A   Clear
7:55 AM 41.2 °F 37.3 °F 24.3 °F 51% 29.82 in 10.0 mi West 5.8 mph - N/A   Clear
8:15 AM 42.6 °F 38.4 °F 23.9 °F 48% 29.84 in 10.0 mi NW 6.9 mph - N/A   Clear
8:35 AM 48.9 °F - 22.1 °F 35% 29.84 in 10.0 mi North 12.7 mph - N/A   Clear
8:55 AM 51.4 °F - 24.1 °F 34% 29.85 in 10.0 mi North 16.1 mph - N/A   Clear
9:15 AM 51.4 °F - 27.7 °F 40% 29.86 in 10.0 mi North 23.0 mph 28.8 mph N/A   Clear
9:35 AM 50.9 °F - 30.0 °F 45% 29.86 in 10.0 mi North 25.3 mph 33.4 mph N/A   Clear
9:55 AM 50.7 °F - 33.4 °F 52% 29.88 in 10.0 mi North 26.5 mph 32.2 mph N/A   Clear
10:15 AM 50.9 °F - 35.4 °F 55% 29.88 in 10.0 mi North 25.3 mph - N/A   Clear
10:35 AM 51.6 °F - 36.7 °F 57% 29.89 in 10.0 mi NNE 20.7 mph 26.5 mph N/A   Clear
10:55 AM 52.9 °F - 37.2 °F 55% 29.90 in 10.0 mi North 21.9 mph 28.8 mph N/A   Clear
11:15 AM 53.8 °F - 37.0 °F 53% 29.91 in 10.0 mi NNE 20.7 mph 28.8 mph N/A   Clear
11:35 AM 55.0 °F - 36.7 °F 50% 29.91 in 10.0 mi NNE 23.0 mph - N/A   Clear
11:55 AM 55.9 °F - 36.3 °F 48% 29.90 in 10.0 mi NNE 18.4 mph 25.3 mph N/A   Clear
12:15 PM 57.4 °F - 36.0 °F 45% 29.90 in 10.0 mi NNE 21.9 mph 26.5 mph N/A   Clear
12:35 PM 58.5 °F - 35.4 °F 42% 29.90 in 10.0 mi NNE 21.9 mph 26.5 mph N/A   Clear
12:55 PM 59.2 °F - 35.2 °F 41% 29.90 in 10.0 mi NNE 20.7 mph 26.5 mph N/A   Clear
1:15 PM 59.9 °F - 35.4 °F 40% 29.90 in 10.0 mi NNE 19.6 mph 25.3 mph N/A   Clear
1:35 PM 58.8 °F - 35.6 °F 42% 29.90 in 10.0 mi NNE 17.3 mph - N/A   Clear
1:55 PM 61.3 °F - 35.1 °F 37% 29.90 in 10.0 mi NNE 17.3 mph 23.0 mph N/A   Clear
2:15 PM 62.6 °F - 35.2 °F 36% 29.89 in 10.0 mi NNE 16.1 mph 26.5 mph N/A   Clear
2:35 PM 61.9 °F - 34.2 °F 35% 29.88 in 10.0 mi North 13.8 mph - N/A   Clear
2:55 PM 61.9 °F - 33.3 °F 34% 29.87 in 10.0 mi NNE 15.0 mph 20.7 mph N/A   Clear
3:15 PM 62.1 °F - 33.1 °F 34% 29.86 in 10.0 mi NNE 11.5 mph - N/A   Clear
3:35 PM 62.6 °F - 33.3 °F 33% 29.85 in 10.0 mi NNE 13.8 mph 20.7 mph N/A   Clear
3:55 PM 62.2 °F - 32.9 °F 33% 29.85 in 10.0 mi North 15.0 mph 19.6 mph N/A   Clear
4:15 PM 61.7 °F - 32.7 °F 34% 29.85 in 10.0 mi NNE 17.3 mph 20.7 mph N/A   Clear
4:35 PM 60.6 °F - 32.4 °F 35% 29.84 in 10.0 mi NNE 12.7 mph 19.6 mph N/A   Clear
4:55 PM 59.9 °F - 32.9 °F 36% 29.84 in 10.0 mi NE 12.7 mph 18.4 mph N/A   Clear
5:15 PM 61.0 °F - 32.7 °F 35% 29.84 in 10.0 mi NNE 12.7 mph - N/A   Clear
5:35 PM 61.5 °F - 33.3 °F 35% 29.84 in 10.0 mi NE 13.8 mph 17.3 mph N/A   Clear
5:55 PM 59.7 °F - 33.3 °F 37% 29.83 in 10.0 mi NE 11.5 mph 17.3 mph N/A   Clear
6:15 PM 58.6 °F - 33.8 °F 39% 29.83 in 10.0 mi NE 13.8 mph - N/A   Clear
6:35 PM 57.9 °F - 34.0 °F 41% 29.84 in 10.0 mi ENE 11.5 mph - N/A   Clear
6:55 PM 57.2 °F - 33.8 °F 41% 29.84 in 10.0 mi NE 12.7 mph - N/A   Clear
7:15 PM 56.3 °F - 34.2 °F 43% 29.84 in 10.0 mi ENE 10.4 mph - N/A   Clear
7:35 PM 55.2 °F - 34.3 °F 45% 29.84 in 10.0 mi NE 9.2 mph - N/A   Clear
7:55 PM 54.0 °F - 34.5 °F 48% 29.84 in 10.0 mi NE 8.1 mph - N/A   Clear
8:15 PM 52.5 °F - 34.7 °F 51% 29.84 in 10.0 mi NE 6.9 mph - N/A   Clear
8:35 PM 50.9 °F - 34.9 °F 54% 29.86 in 10.0 mi NE 5.8 mph - N/A   Clear
8:55 PM 49.3 °F - 35.8 °F 60% 29.85 in 10.0 mi NE 8.1 mph - N/A   Clear
9:15 PM 49.5 °F - 35.6 °F 59% 29.86 in 10.0 mi NE 8.1 mph - N/A   Clear
9:35 PM 49.3 °F - 35.8 °F 60% 29.86 in 10.0 mi NE 8.1 mph - N/A   Clear
9:55 PM 49.3 °F - 36.0 °F 60% 29.86 in 10.0 mi NNE 8.1 mph - N/A   Clear
10:15 PM 49.1 °F - 35.8 °F 60% 29.86 in 10.0 mi NNE 10.4 mph - N/A   Clear
10:35 PM 49.1 °F - 35.8 °F 60% 29.88 in 10.0 mi NNE 9.2 mph - N/A   Clear
10:55 PM 49.3 °F - 35.8 °F 60% 29.87 in 10.0 mi NE 13.8 mph - N/A   Clear
11:15 PM 49.1 °F - 34.0 °F 56% 29.88 in 10.0 mi NE 17.3 mph - N/A   Scattered Clouds
11:35 PM 48.4 °F - 32.9 °F 55% 29.89 in 10.0 mi NE 15.0 mph - N/A   Scattered Clouds
11:55 PM 47.7 °F - 32.0 °F 55% 29.88 in 10.0 mi NE 18.4 mph - N/A   Scattered Clouds